Location: Kawakawa
(35.3830°S, 174.0670°E)
Time: 17:07:49
(UTC+13:00)

Cosmos 1242 Rocket - Pass Details

Date: 24 January 2019
Orbit: 449 x 490 km, 81.2° (Epoch: 15 February)

Event Time Altitude Azimuth Distance (km) Brightness Sun altitude
Rises 22:54:57 0° 197° (SSW) 2,603 7.4 -23.4°
Reaches altitude 10° 22:57:10 10° 204° (SSW) 1,713 6.3 -23.7°
Maximum altitude 23:00:42 40° 274° (W) 745 3.7 -24.2°
Enters shadow 23:00:51 40° 281° (W) 747 3.6 -24.2°
